CDT,Max TemperatureF,Mean TemperatureF,Min TemperatureF,Max Dew PointF,MeanDew PointF,Min DewpointF,Max Humidity, Mean Humidity, Min Humidity, Max Sea Level PressureIn, Mean Sea Level PressureIn, Min Sea Level PressureIn, Max VisibilityMiles, Mean VisibilityMiles, Min VisibilityMiles, Max Wind SpeedMPH, Mean Wind SpeedMPH, Max Gust SpeedMPH,PrecipitationIn, CloudCover, Events, WindDirDegrees
2013-6-1,79,72,64,73,67,63,100,93,76,29.94,29.87,29.75,10,4,0,17,3,31,3.80,8,Fog-Rain,142
2013-6-2,79,69,60,64,62,58,100,85,50,30.01,29.96,29.92,10,6,0,8,0,,0.00,3,Fog,312
2013-6-3,81,66,53,63,59,53,100,80,50,30.02,29.96,29.89,10,8,2,5,0,,0.00,0,,105
2013-6-4,81,70,59,67,63,58,97,81,60,30.02,29.93,29.88,10,8,3,9,1,,0.00,1,,132
2013-6-5,86,73,60,71,65,60,100,86,55,29.99,29.88,29.76,10,6,2,9,1,18,0.03,1,Rain,50
2013-6-6,73,68,64,68,66,63,100,88,73,29.90,29.84,29.80,10,8,3,6,0,,0.13,5,Rain,317
2013-6-7,82,71,59,65,58,51,97,70,38,29.93,29.89,29.86,10,10,6,5,1,,0.00,3,,312
2013-6-8,82,68,55,62,58,54,97,71,42,29.94,29.90,29.86,10,9,4,7,1,,0.00,1,,153
2013-6-9,84,72,61,70,66,61,100,80,56,29.91,29.87,29.83,10,8,4,6,1,,0.00,2,,130
2013-6-10,91,78,64,70,66,63,100,73,42,29.91,29.89,29.87,10,8,1,8,1,,0.00,0,,230
2013-6-11,91,80,69,73,70,67,96,72,52,30.00,29.95,29.90,10,10,9,7,1,,0.00,0,,-1
2013-6-12,90,82,75,73,71,68,87,69,55,30.02,29.96,29.91,10,10,9,8,3,17,0.00,0,,250
2013-6-13,95,83,71,78,73,69,94,72,49,29.96,29.92,29.86,10,10,7,6,2,,0.00,0,,300
2013-6-14,91,82,72,74,70,67,93,73,53,30.01,29.95,29.91,10,10,8,5,1,,0.00,2,,100
2013-6-15,88,76,64,71,66,63,100,81,48,30.02,29.98,29.92,10,6,2,7,1,,0.00,0,,130
2013-6-16,89,80,71,75,72,66,100,86,53,30.04,29.96,29.83,10,6,0,9,2,23,0.97,4,Fog-Rain,106
2013-6-17,84,75,68,73,69,67,100,91,63,29.97,29.90,29.84,10,6,1,7,1,18,0.30,4,Rain,345
2013-6-18,84,75,66,69,67,64,97,82,53,30.00,29.94,29.85,10,8,4,6,1,,0.00,2,,80
2013-6-19,86,74,61,70,65,60,100,85,49,30.02,29.98,29.94,10,6,1,9,1,,0.00,1,,160
2013-6-20,89,76,64,73,69,64,100,79,57,30.07,30.02,29.99,10,7,2,8,1,,0.00,1,,141
2013-6-21,91,82,73,74,72,70,93,74,55,30.08,30.03,29.99,10,9,4,7,1,,0.00,0,,220
2013-6-22,89,80,71,73,71,70,96,74,55,30.06,30.00,29.94,10,9,5,6,2,,0.00,0,,137
2013-6-23,90,82,75,72,70,68,87,69,50,30.01,29.97,29.93,10,9,5,8,3,,0.00,0,,163
2013-6-24,90,82,73,72,70,67,87,68,48,30.05,29.99,29.95,10,10,9,8,3,,0.00,0,,180
2013-6-25,89,82,77,72,71,68,84,69,53,30.03,29.94,29.86,10,10,8,9,4,,0.00,2,,218
2013-6-26,91,82,75,73,72,69,91,70,54,29.94,29.89,29.85,10,10,8,8,3,,0.00,0,,235
2013-6-27,99,84,71,77,72,70,97,73,44,29.97,29.91,29.83,10,8,2,7,1,,0.00,0,,290
2013-6-28,97,86,75,74,69,61,79,59,31,29.87,29.80,29.75,10,10,8,7,2,17,0.00,0,,326
2013-6-29,90,78,66,67,60,54,97,59,30,29.81,29.78,29.74,10,10,8,10,2,20,0.00,0,,325
2013-6-30,82,72,62,63,59,56,90,67,45,29.88,29.83,29.76,10,10,10,9,2,,0.00,3,,318